Location: Acton
(51.4942°N, 0.2232°W)
Time: 13:09:53
(UTC+00:00)

IGS 5A - Pass Details

Date: 18 September 2020
Orbit: 583 x 588 km, 97.6° (Epoch: 09 October)

Event Time Altitude Azimuth Distance (km) Brightness Sun altitude
Exits shadow 21:13:36 52° 305° (NW) 732 4.2 -27.1°
Drops below altitude 10° 21:17:01 10° 340° (NNW) 1,919 6.9 -27.5°
Sets 21:19:13 0° 344° (NNW) 2,824 7.8 -27.7°
